Regional Weather Roundup
Issued by NWS

Home | Current Version | Previous Version | Graphics & Text | Print | Product List | Glossary On
Versions: 1 2 3 4 5 6 7 8 9 10 11 12 13 14 15 16 17 18 19 20 21 22 23 24 25 26 27 28 29 30 31 32 33 34 35 36 37 38 39 40 41 42 43 44 45 46 47 48 49 50
000
ASUS43 KLOT 222008
RWRIL

ILLINOIS REGIONAL WEATHER ROUNDUP
NATIONAL WEATHER SERVICE CHICAGO/ROMEOVILLE IL
200 PM CST SUN JAN 22 2017

NOTE: "FAIR" INDICATES FEW OR NO CLOUDS BELOW 12,000 FEET WITH NO
SIGNIFICANT WEATHER AND/OR OBSTRUCTIONS TO VISIBILITY.

* THESE STATIONS ARE NOT UNDER NWS QUALITY CONTROL. THEY ALSO MAY NOT
  REPORT WEATHER SUCH AS PRECIPITATION OR FOG.

ILZ001-002-007-009-015-016-024-222100-
NORTHWEST ILLINOIS

CITY           SKY/WX    TMP DP  RH WIND       PRES   REMARKS
MOLINE         CLOUDY    42  34  73 N3        29.64F
STERLING*      CLOUDY    39  39 100 N8        29.64F WCI  33
SAVANNA*       PTSUNNY   42  40  93 W5        29.65S
$$

ILZ003-004-008-010-011-017-018-222100-
NORTH CENTRAL ILLINOIS

CITY           SKY/WX    TMP DP  RH WIND       PRES   REMARKS
ROCKFORD       PTSUNNY   43  36  76 NW8       29.64F
FREEPORT*      CLOUDY    40  40  98 NW8       29.66S
ROCHELLE*      CLOUDY    38  38  99 N12       29.63F FOG     WCI  31
DE KALB*       CLOUDY    37  37  99 N10       29.62F FOG     WCI  30
PERU*          CLOUDY    40  36  84 N15       29.62S
$$

ILZ005-006-012>014-019>023-222100-
NORTHEAST ILLINOIS

CITY           SKY/WX    TMP DP  RH WIND       PRES   REMARKS
CHICAGO-OHARE  CLOUDY    45  39  79 N6        29.60S
CHICAGO-MIDWAY CLOUDY    46  39  76 NE9       29.60F
AURORA         CLOUDY    40  37  89 N14       29.61F FOG
LANSING*       CLOUDY    41  41 100 N9        29.60F FOG
JOLIET*        CLOUDY    46  42  88 N9        29.60S
WAUKEGAN       CLOUDY    44  38  79 NW6       29.61S
DUPAGE AIRPORT CLOUDY    42  38  85 N9        29.60F
KANKAKEE*      CLOUDY    44  43  97 N10       29.59R FOG
WHEELING       CLOUDY    45  39  79 N5        29.62S
MORRIS*        CLOUDY    42  41  96 N5        29.60S
ROMEOVILLE*    CLOUDY    45  43  93 N7        29.60S
NORTHERLY ISL    N/A     39  38  96 N5          N/A
$$

LMZ740>746-222100-
SOUTHERN LAKE MICHIGAN

STATION/POSITION SKY/WX   TEMP    WIND        PRES    VSBY  WAVE
                          AIR SEA DIR/SP/G                  HT/PER
                          (F)     (DEG/KT/KT) (MB)    (MI)  (FT/S)
HARRISON CRIB              40     360/  6/  7   N/A
BURNHAM HARBOR             39      20/  6/  8   N/A
CALUMET HARBOR             39      10/  6/  7 1002.3F
BURNS HARBOR               36     360/  6/  7 1003.4F
MICHIGAN CITY              37     350/  8/  8   N/A
$$

ILZ025>027-034>036-040-047-049-050-058-095>099-222100-
WEST-CENTRAL ILLINOIS

CITY           SKY/WX    TMP DP  RH WIND       PRES   REMARKS
QUINCY         CLOUDY    45  39  79 N18       29.59F
GALESBURG*     CLOUDY    41  38  87 N9        29.63S
MACOMB*        CLOUDY    41  40  95 N15       29.63F FOG
JACKSONVILLE*  CLOUDY    48  41  75 N15       29.56R HAZE
PITTSFIELD*    MOSUNNY   51  40  63 NW17G23   29.57R
$$

ILZ028>032-037-038-041>044-048-051>054-059>061-222100-
CENTRAL ILLINOIS

CITY           SKY/WX    TMP DP  RH WIND       PRES   REMARKS
PONTIAC        CLOUDY    44  44 100 N14       29.60R
BLOOMINGTON    CLOUDY    44  41  89 N18       29.57S
DECATUR        CLOUDY    48  47  96 NE9       29.53R FOG
PEORIA         CLOUDY    46  37  71 N13G21    29.59F
LACON*         CLOUDY    43  38  82 N9        29.60S
LINCOLN*       CLOUDY    49  44  84 N14       29.56R
SPRINGFIELD    CLOUDY    52  44  74 N15       29.54F
TAYLORVILLE    CLOUDY    50  48  92 N10       29.52S
$$

ILZ033-039-045-046-055>057-062-063-222100-
EAST-CENTRAL ILLINOIS

CITY           SKY/WX    TMP DP  RH WIND       PRES   REMARKS
CHAMPAIGN      CLOUDY    50  46  86 NE12      29.52S FOG
RANTOUL*       CLOUDY    47  46  97 N13       29.54R FOG
MATTOON        MOSUNNY   58  54  86 N16       29.47F
PARIS*         PTSUNNY   61  53  75 NE12      29.49F
$$

ILZ079-100>102-222100-
SOUTHWEST ILLINOIS

CITY           SKY/WX    TMP DP  RH WIND       PRES   REMARKS
ALTON          CLOUDY    50  46  87 N12G17    29.51R FOG
BELLEVILLE     CLOUDY    55  50  82 N15       29.46S
CAHOKIA*       CLOUDY    53  46  77 N12G21    29.50R
SPARTA*        MOSUNNY   58  51  79 NW14      29.45S
$$

ILZ064>066-069>071-074>076-080>082-084>086-088>090-092>094-222100-
SOUTH-CENTRAL ILLINOIS

CITY           SKY/WX    TMP DP  RH WIND       PRES   REMARKS
CARBONDALE     PTSUNNY   62  53  72 NE13      29.40F
CAIRO*         CLOUDY    61  55  78 NE10G16   29.35F
EFFINGHAM*     CLOUDY    61  54  77 N6        29.47F
MARION         PTSUNNY   59  54  82 E7        29.41F
MT. VERNON     CLOUDY    63  52  67 NE13      29.42F
CENTRALIA*     CLOUDY    61  54  76 N12       29.43S
SALEM*         CLOUDY    61  53  75 N14       29.45S
METROPOLIS*    CLOUDY    61  53  74 NE7       29.37S
$$

ILZ067-068-072-073-078-083-087-091-222100-
SOUTHEAST ILLINOIS

CITY           SKY/WX    TMP DP  RH WIND       PRES   REMARKS
LAWRENCEVILLE  PTSUNNY   60  52  74 NE17      29.43F
FLORA*         CLOUDY    64  53  68 NE10      29.44F
FAIRFIELD*     CLOUDY    62  53  73 NE6       29.42S
HARRISBURG*    CLOUDY    59  54  81 E6        29.40F
ROBINSON*      PTSUNNY   61  51  71 NE14      29.46F
CARMI*         CLOUDY    60  53  78 NE9       29.41F
$$

ABBREVIATIONS USED IN REMARKS
   TC - TEMPERATURE IN CELSIUS
  WCI - WIND CHILL INDEX
   HX - HEAT INDEX
  VSB - VISIBILITY
$$





USA.gov is the U.S. government's official web portal to all federal, state and local government web resources and services.